1510686000.01,1332,8.5,73562.3,-9.07,-39.71,-39.71,0,*6D
1510686001.27,1333,8.56,73560.5,-9.07,-39.85,-39.71,0,*67
1510686002.51,1334,8.56,73562.8,-9.09,-39.85,-39.71,0,*6E
1510686003.72,1335,8.56,73562.0,-9.09,-39.85,-39.91,0,*61
1510686004.96,1336,8.56,73562.8,-9.07,-39.85,-39.91,0,*6C
1510686006.23,1337,8.56,73566.8,-9.07,-40.21,-40.21,0,*68
1510686007.51,1338,8.56,73560.0,-9.07,-40.09,-40.21,0,*6D
1510686008.78,1339,8.56,73560.8,-9.09,-40.09,-40.09,0,*68
1510686010.02,1340,8.56,73562.3,-9.09,-40.09,-40.03,0,*6C
1510686011.23,1341,8.5,73558.0,-9.09,-40.03,-40.03,0,*67
1510686012.43,1342,8.5,73558.5,-9.09,-40.03,-40.03,0,*64
1510686013.67,1343,8.56,73560.5,-9.09,-40.03,-40.09,0,*6F
1510686014.96,1344,8.56,73564.0,-9.11,-39.97,-40.09,0,*62
1510686016.22,1345,8.56,73560.8,-9.11,-39.97,-39.91,0,*6C
1510686017.48,1346,8.5,73562.0,-9.11,-39.91,-39.97,0,*6F
1510686018.74,1347,8.5,73562.3,-9.11,-39.97,-39.91,0,*6E
1510686020.02,1348,8.56,73562.0,-9.11,-39.97,-39.97,0,*67
1510686021.32,1349,8.56,73560.8,-9.11,-39.79,-39.79,0,*66
1510686022.61,1350,8.56,73562.8,-9.11,-39.79,-39.71,0,*66
1510686023.9,1351,8.56,73560.3,-9.11,-39.41,-39.59,0,*66
1510686025.19,1352,8.56,73558.5,-9.11,-39.71,-39.71,0,*6C
1510686026.43,1353,8.5,73558.5,-9.11,-39.91,-39.91,0,*6D
1510686027.71,1354,8.5,73556.5,-9.11,-39.97,-39.97,0,*6A
1510686029.0,1355,8.56,73558.8,-9.11,-39.97,-40.09,0,*62
1510686030.26,1356,8.56,73564.5,-9.11,-40.09,-40.15,0,*65
1510686031.48,1357,8.5,73560.5,-9.13,-40.15,-40.15,0,*6B
1510686032.74,1358,8.56,73566.5,-9.13,-39.97,-40.09,0,*6D
1510686034.0,1359,8.5,73560.5,-9.13,-40.09,-39.97,0,*6C
1510686035.27,1360,8.5,73562.3,-9.15,-40.15,-40.21,0,*6E
1510686036.51,1361,8.5,73560.8,-9.15,-40.15,-40.15,0,*68
1510686037.74,1362,8.56,73564.0,-9.15,-40.03,-40.15,0,*6C
1510686039.01,1363,8.56,73564.0,-9.13,-40.09,-40.09,0,*6C
1510686040.27,1364,8.56,73566.5,-9.13,-39.97,-40.09,0,*62
1510686041.52,1365,8.5,73564.5,-9.15,-40.21,-40.15,0,*6B
1510686042.75,1366,8.56,73564.8,-9.15,-40.03,-40.15,0,*68
1510686043.99,1367,8.56,73568.3,-9.15,-40.15,-40.15,0,*6E
1510686045.23,1368,8.5,73564.3,-9.15,-40.15,-40.15,0,*61
1510686046.48,1369,8.5,73562.3,-9.17,-40.21,-40.15,0,*65
1510686047.73,1370,8.56,73568.3,-9.17,-40.15,-40.15,0,*6A
1510686048.99,1371,8.56,73566.5,-9.15,-39.85,-39.97,0,*6A
1510686050.25,1372,8.56,73570.5,-9.17,-39.85,-39.97,0,*6B
1510686051.48,1373,8.5,73566.5,-9.15,-40.03,-40.03,0,*6B
1510686052.74,1374,8.56,73566.5,-9.15,-39.85,-39.97,0,*6F
1510686054.03,1375,8.56,73566.8,-9.17,-39.79,-39.79,0,*6F
1510686055.28,1376,8.5,73564.0,-9.17,-39.97,-40.03,0,*6F
1510686056.51,1377,8.56,73568.8,-9.17,-40.03,-40.03,0,*6D
1510686057.77,1378,8.56,73570.5,-9.19,-40.21,-40.09,0,*66
1510686058.98,1379,8.5,73564.0,-9.19,-39.91,-40.03,0,*68
1510686060.19,1380,8.56,73564.0,-9.19,-40.03,-39.91,0,*6E
1510686061.43,1381,8.5,73566.5,-9.19,-40.03,-40.09,0,*60
1510686062.64,1382,8.56,73568.3,-9.19,-39.91,-39.85,0,*6C
1510686063.88,1383,8.56,73566.8,-9.19,-39.71,-39.85,0,*63
1510686065.09,1384,8.56,73564.3,-9.19,-39.85,-39.85,0,*6F
1510686066.33,1385,8.5,73564.8,-9.19,-39.71,-39.85,0,*65
1510686067.57,1386,8.56,73564.8,-9.19,-39.65,-39.71,0,*68
1510686068.8,1387,8.5,73562.3,-9.21,-39.85,-39.91,0,*62
1510686070.01,1388,8.5,73562.3,-9.19,-39.85,-39.85,0,*63
1510686071.25,1389,8.5,73558.0,-9.21,-39.85,-39.85,0,*69
1510686072.51,1390,8.56,73560.8,-9.21,-39.65,-39.71,0,*64
1510686073.75,1391,8.5,73558.8,-9.19,-39.65,-39.71,0,*6E
1510686074.99,1392,8.5,73558.8,-9.19,-39.85,-39.71,0,*63
1510686076.2,1393,8.56,73558.3,-9.19,-39.85,-39.91,0,*6C
1510686077.44,1394,8.5,73556.0,-9.19,-40.03,-40.09,0,*64
1510686078.68,1395,8.56,73560.8,-9.21,-39.91,-39.91,0,*64
1510686079.92,1396,8.56,73558.0,-9.21,-39.91,-39.91,0,*67
1510686081.21,1397,8.56,73560.0,-9.21,-39.71,-39.71,0,*66
1510686082.44,1398,8.56,73560.8,-9.21,-39.85,-39.85,0,*69
1510686083.7,1399,8.56,73562.5,-9.21,-39.53,-39.65,0,*6D
1510686084.98,1400,8.5,73558.3,-9.21,-39.53,-39.53,0,*6F
1510686086.2,1401,8.5,73558.5,-9.19,-39.29,-39.35,0,*68
1510686087.44,1402,8.56,73560.3,-9.21,-39.47,-39.65,0,*6D
1510686088.68,1403,8.56,73562.3,-9.19,-39.65,-39.71,0,*62
1510686089.95,1404,8.5,73560.3,-9.21,-39.71,-39.65,0,*6E
1510686091.21,1405,8.56,73560.3,-9.21,-39.53,-39.65,0,*6F
1510686092.45,1406,8.5,73560.3,-9.21,-39.65,-39.65,0,*69
1510686093.69,1407,8.5,73558.3,-9.19,-39.85,-39.71,0,*68
1510686094.95,1408,8.5,73558.0,-9.21,-39.71,-39.85,0,*6C
1510686096.22,1409,8.56,73560.0,-9.21,-39.53,-39.53,0,*66
1510686097.46,1410,8.5,73562.3,-9.19,-39.65,-39.71,0,*60
1510686098.72,1411,8.5,73560.0,-9.21,-39.85,-39.71,0,*64
1510686100.01,1412,8.5,73558.0,-9.21,-39.71,-39.71,0,*6C
1510686101.27,1413,8.5,73558.5,-9.21,-39.71,-39.85,0,*66
1510686102.56,1414,8.56,73564.5,-9.21,-39.71,-39.71,0,*6A
1510686103.8,1415,8.5,73562.5,-9.21,-39.85,-39.85,0,*6B
1510686105.04,1416,8.56,73566.5,-9.21,-39.65,-39.65,0,*68
1510686106.26,1417,8.5,73560.8,-9.21,-39.35,-39.47,0,*6C
1510686107.54,1418,8.5,73564.0,-9.21,-39.53,-39.53,0,*66
1510686108.8,1419,8.56,73566.5,-9.23,-39.71,-39.79,0,*6D
1510686110.06,1420,8.5,73562.3,-9.23,-39.79,-39.79,0,*6F
1510686111.33,1421,8.56,73564.3,-9.23,-39.59,-39.71,0,*64
1510686112.59,1422,8.5,73564.3,-9.21,-39.65,-39.71,0,*6A
1510686113.85,1423,8.56,73566.8,-9.21,-39.85,-39.71,0,*65
1510686115.09,1424,8.56,73568.3,-9.21,-39.91,-39.91,0,*69
1510686116.35,1425,8.56,73568.0,-9.27,-39.97,-39.97,0,*6E
1510686117.6,1426,8.56,73568.0,-9.23,-39.97,-39.97,0,*69
1510686118.85,1427,8.56,73568.5,-9.23,-39.53,-39.71,0,*68
1510686120.11,1428,8.5,73566.0,-9.23,-39.41,-39.59,0,*6E
1510686121.37,1429,8.56,73570.0,-9.27,-39.53,-39.59,0,*68
1510686122.62,1430,8.5,73564.5,-9.23,-39.53,-39.59,0,*64
1510686123.89,1431,8.5,73564.3,-9.23,-39.59,-39.79,0,*6D
1510686125.13,1432,8.56,73566.8,-9.23,-39.79,-39.91,0,*6A
1510686126.38,1433,8.56,73566.3,-9.23,-39.53,-39.59,0,*67
1510686127.64,1434,8.56,73564.3,-9.27,-39.41,-39.41,20,*5C
1510686128.9,1435,8.5,73564.5,-9.23,-39.41,-39.53,19,*50
1510686130.17,1436,8.56,73564.8,-9.27,-39.59,-39.59,18,*55
1510686131.44,1437,8.5,73562.3,-9.27,-39.23,-39.15,17,*5E
1510686132.68,1438,8.5,73562.8,-9.23,-39.09,-39.15,16,*5C
1510686133.95,1439,8.56,73562.8,-9.23,-39.15,-39.15,15,*53
1510686135.19,1440,8.56,73562.8,-9.21,-39.09,-39.09,14,*5E
1510686136.4,1441,8.56,73562.5,-9.27,-39.35,-39.35,13,*5E
1510686137.66,1442,8.56,73564.3,-9.23,-39.53,-39.59,12,*52
1510686138.94,1443,8.56,73562.5,-9.27,-39.59,-39.79,11,*5C
1510686140.21,1444,8.5,73560.0,-9.27,-39.79,-39.79,10,*58
1510686141.47,1445,8.5,73562.3,-9.23,-39.59,-39.71,9,*6F
1510686142.73,1446,8.5,73560.8,-9.23,-39.41,-39.59,8,*6E
1510686144.0,1447,8.5,73562.3,-9.23,-39.59,-39.71,7,*63
1510686145.25,1448,8.5,73560.3,-9.23,-39.53,-39.59,6,*6D
1510686146.5,1449,8.5,73562.8,-9.27,-39.41,-39.53,5,*62
1510686147.73,1450,8.56,73566.0,-9.23,-39.23,-39.35,4,*6B
1510686148.98,1451,8.56,73564.5,-9.23,-39.23,-39.23,3,*6A
1510686150.23,1452,8.5,73562.8,-9.23,-39.23,-39.15,2,*6D
1510686151.48,1453,8.5,73562.8,-9.23,-39.23,-39.41,1,*6E
1510686152.73,1454,8.5,73566.0,-9.23,-39.23,-39.15,0,*69
1510686154.02,1455,8.5,73564.0,-9.21,-39.03,-39.15,0,*68
1510686155.26,1456,8.5,73566.3,-9.21,-39.09,-39.09,0,*6C
1510686156.52,1457,8.5,73562.3,-9.21,-39.03,-39.09,0,*67
1510686157.78,1458,8.5,73564.0,-9.21,-39.09,-39.15,0,*6F
1510686159.07,1459,8.5,73564.5,-9.21,-39.15,-39.29,0,*6C
1510686160.35,1460,8.5,73562.5,-9.21,-39.29,-39.29,0,*69
1510686161.63,1461,8.5,73564.5,-9.21,-39.15,-39.29,0,*67
1510686162.9,1462,8.5,73564.5,-9.21,-39.15,-39.09,0,*66
1510686164.15,1463,8.5,73566.0,-9.19,-39.03,-39.03,0,*61
1510686165.39,1464,8.5,73560.5,-9.21,-39.09,-39.09,0,*6D
1510686166.68,1465,8.5,73566.5,-9.21,-39.15,-39.15,0,*6C
1510686167.91,1466,8.5,73564.0,-9.19,-39.29,-39.35,0,*69
1510686169.13,1467,8.56,73566.8,-9.19,-39.29,-39.35,0,*68
1510686170.36,1468,8.5,73564.0,-9.19,-39.29,-39.47,0,*62
1510686171.56,1469,8.5,73564.5,-9.19,-39.35,-39.47,0,*6E
1510686172.81,1470,8.5,73560.5,-9.21,-39.35,-39.53,0,*68
1510686174.05,1471,8.5,73562.0,-9.19,-39.53,-39.65,0,*67
1510686175.34,1472,8.5,73560.5,-9.21,-39.71,-39.71,0,*6A
1510686176.58,1473,8.5,73562.8,-9.21,-39.85,-39.91,0,*6E
1510686177.81,1474,8.5,73562.5,-9.21,-39.85,-40.03,0,*6C
1510686179.04,1475,8.5,73560.3,-9.21,-40.03,-40.03,0,*6D
1510686180.28,1476,8.56,73562.3,-9.21,-39.91,-39.91,0,*6E
1510686181.54,1477,8.5,73560.3,-9.21,-39.71,-39.85,0,*64
1510686182.8,1478,8.5,73558.8,-9.23,-39.71,-39.79,0,*6A
1510686184.06,1479,8.5,73558.8,-9.23,-39.71,-39.79,0,*6B
1510686185.3,1480,8.5,73560.0,-9.23,-39.79,-39.91,0,*63
1510686186.54,1481,8.5,73558.5,-9.23,-39.71,-39.91,0,*6A
1510686187.8,1482,8.5,73560.0,-9.21,-39.65,-39.71,0,*60
1510686189.06,1483,8.5,73558.3,-9.23,-39.71,-39.79,0,*6E
1510686190.31,1484,8.5,73560.3,-9.27,-39.79,-39.91,0,*63
1510686191.54,1485,8.5,73560.0,-9.23,-39.79,-39.91,0,*66
1510686192.79,1486,8.5,73558.3,-9.27,-39.71,-39.91,0,*69
1510686194.03,1487,8.5,73560.0,-9.27,-39.71,-39.91,0,*68
1510686195.27,1488,8.5,73562.3,-9.27,-39.79,-39.91,0,*6F
1510686196.52,1489,8.5,73560.5,-9.27,-39.79,-39.91,0,*6E
1510686197.76,1490,8.5,73562.8,-9.23,-39.79,-39.91,0,*62
1510686199.0,1491,8.5,73562.5,-9.23,-39.79,-39.91,0,*63
1510686200.27,1492,8.5,73560.3,-9.27,-39.59,-39.79,0,*60
1510686201.54,1493,8.5,73562.3,-9.27,-39.59,-39.79,0,*61
1510686202.81,1494,8.56,73564.0,-9.27,-39.79,-39.71,0,*6C
1510686204.08,1495,8.5,73560.5,-9.27,-39.71,-39.79,0,*6D
1510686205.34,1496,8.56,73566.5,-9.27,-39.71,-39.79,0,*6E
1510686206.61,1497,8.56,73564.5,-9.27,-39.71,-39.79,0,*6F
1510686207.88,1498,8.5,73562.8,-9.29,-39.85,-39.97,0,*65
1510686209.14,1499,8.5,73564.5,-9.29,-39.85,-39.97,0,*64
1510686210.38,1500,8.56,73564.3,-9.27,-39.91,-39.97,0,*6E
1510686211.62,1501,8.56,73564.3,-9.27,-39.91,-39.97,0,*6F
1510686212.88,1502,8.5,73562.3,-9.29,-39.97,-40.03,0,*67
1510686214.16,1503,8.56,73564.8,-9.29,-39.97,-39.97,0,*65
1510686215.42,1504,8.5,73562.0,-9.29,-39.85,-39.97,0,*61
1510686216.68,1505,8.5,73564.5,-9.29,-39.29,-39.47,0,*6B
1510686217.93,1506,8.5,73564.0,-9.29,-39.41,-39.47,0,*66
1510686219.21,1507,8.5,73564.8,-9.29,-39.29,-39.23,0,*6B
1510686220.5,1508,8.56,73570.3,-9.29,-39.23,-39.15,0,*6B
1510686221.78,1509,8.5,73566.8,-9.29,-39.23,-39.29,0,*65
1510686223.04,1510,8.5,73566.3,-9.29,-39.41,-39.47,0,*61
1510686224.3,1511,8.5,73570.5,-9.29,-39.41,-39.47,0,*60
1510686225.52,1512,8.5,73568.3,-9.23,-39.23,-39.35,0,*68
1510686226.82,1513,8.56,73568.5,-9.29,-39.59,-39.79,0,*66
1510686228.08,1514,8.5,73566.3,-9.29,-39.65,-39.79,0,*6E
1510686229.32,1515,8.5,73564.3,-9.31,-39.47,-39.59,0,*64
1510686230.59,1516,8.5,73570.0,-9.29,-39.47,-39.79,0,*6C
1510686231.84,1517,8.5,73564.5,-9.29,-39.41,-39.47,0,*66
1510686233.07,1518,8.5,73566.5,-9.27,-39.35,-39.41,0,*62
1510686234.33,1519,8.5,73566.3,-9.27,-39.41,-39.53,0,*63
1510686235.59,1520,8.5,73564.5,-9.27,-39.53,-39.59,0,*60
1510686236.82,1521,8.5,73564.8,-9.27,-39.35,-39.41,0,*68
1510686238.07,1522,8.56,73566.5,-9.23,-39.23,-39.41,0,*68
1510686239.32,1523,8.5,73564.0,-9.27,-39.23,-39.53,0,*6E
1510686240.59,1524,8.5,73564.8,-9.27,-39.41,-39.59,0,*67
1510686241.84,1525,8.56,73566.0,-9.23,-39.53,-39.79,0,*63
1510686243.1,1526,8.5,73560.5,-9.27,-39.41,-39.71,0,*6F
1510686244.36,1527,8.5,73562.0,-9.27,-39.53,-39.71,0,*6D
1510686245.63,1528,8.5,73560.0,-9.27,-39.59,-39.71,0,*68
1510686246.92,1529,8.56,73566.0,-9.29,-39.41,-39.59,0,*64
1510686248.18,1530,8.5,73560.5,-9.29,-39.23,-39.35,0,*62
1510686249.44,1531,8.5,73558.3,-9.27,-39.53,-39.71,0,*6A
1510686250.7,1532,8.5,73558.5,-9.27,-39.71,-39.79,0,*61
1510686251.97,1533,8.5,73556.8,-9.23,-39.79,-39.79,0,*6C
1510686253.23,1534,8.5,73556.3,-9.27,-39.71,-39.79,0,*67
1510686254.49,1535,8.5,73562.0,-9.27,-39.53,-39.53,0,*6E
1510686255.74,1536,8.5,73562.5,-9.27,-39.23,-39.41,0,*69
1510686256.96,1537,8.5,73564.8,-9.23,-39.35,-39.53,0,*68
1510686258.24,1538,8.5,73562.3,-9.27,-39.59,-39.79,0,*61
1510686259.5,1539,8.5,73562.8,-9.27,-39.71,-39.79,0,*6A
1510686260.77,1540,8.5,73560.8,-9.27,-39.71,-39.71,0,*6C
1510686262.03,1541,8.5,73560.3,-9.27,-39.53,-39.59,0,*67
1510686263.26,1542,8.5,73562.3,-9.27,-39.23,-39.35,0,*69
1510686264.51,1543,8.5,73562.8,-9.23,-39.23,-39.15,0,*6E
1510686265.74,1544,8.5,73564.3,-9.27,-39.23,-39.35,0,*6F
1510686266.99,1545,8.5,73566.3,-9.27,-39.23,-39.23,0,*69
1510686268.23,1546,8.5,73562.8,-9.27,-39.09,-39.15,0,*67
1510686269.47,1547,8.5,73566.0,-9.27,-39.09,-39.15,0,*66
1510686270.73,1548,8.5,73560.3,-9.23,-38.91,-38.91,0,*60
1510686271.93,1549,8.5,73564.8,-9.27,-38.97,-38.97,0,*65
1510686273.13,1550,8.5,73560.5,-9.23,-38.97,-39.09,0,*6F
1510686274.36,1551,8.5,73562.0,-9.27,-39.15,-39.35,0,*6E
1510686275.63,1552,8.56,73564.5,-9.21,-39.09,-39.29,0,*6B
1510686276.87,1553,8.5,73562.8,-9.21,-39.09,-39.09,0,*68
1510686278.1,1554,8.5,73560.8,-9.21,-39.09,-39.09,0,*6F
1510686279.34,1555,8.5,73560.3,-9.21,-38.85,-38.85,0,*6E
1510686280.58,1556,8.5,73560.0,-9.19,-38.85,-38.91,0,*63
1510686281.83,1557,8.5,73558.8,-9.21,-38.67,-38.73,0,*69
1510686283.04,1558,8.5,73560.5,-9.19,-38.73,-38.85,0,*61
1510686284.27,1559,8.5,73558.5,-9.19,-38.67,-38.73,0,*6C
1510686285.51,1560,8.5,73554.3,-9.19,-38.49,-38.35,0,*68
1510686286.77,1561,8.56,73562.8,-9.19,-38.49,-38.67,0,*6E
1510686288.01,1562,8.5,73556.0,-9.19,-38.67,-38.55,0,*60
1510686289.29,1563,8.5,73556.5,-9.17,-38.67,-38.67,0,*6E
1510686290.57,1564,8.5,73558.5,-9.15,-38.67,-38.79,0,*64
1510686291.85,1565,8.5,73558.8,-9.15,-38.67,-38.79,0,*65
1510686293.13,1566,8.5,73554.5,-9.17,-38.67,-38.67,0,*6B
1510686294.41,1567,8.5,73558.0,-9.15,-38.67,-38.67,0,*68
1510686295.69,1568,8.5,73558.8,-9.15,-38.79,-38.79,0,*67
1510686296.92,1569,8.5,73558.5,-9.15,-38.97,-38.85,0,*65
1510686298.2,1570,8.5,73560.0,-9.15,-38.67,-38.67,0,*6E
1510686299.41,1571,8.5,73558.8,-9.13,-38.61,-38.61,0,*69
1510686300.62,1572,8.5,73558.8,-9.13,-38.43,-38.61,0,*6A
1510686301.83,1573,8.5,73560.3,-9.13,-38.17,-38.35,0,*6B
1510686303.07,1574,8.5,73556.3,-9.11,-38.35,-38.35,0,*6E
1510686304.28,1575,8.5,73558.8,-9.13,-38.61,-38.61,0,*6D
1510686305.56,1576,8.5,73558.3,-9.11,-39.15,-39.23,0,*69
1510686306.79,1577,8.5,73560.3,-9.11,-38.97,-38.97,0,*6D
1510686308.03,1578,8.5,73556.5,-9.09,-38.67,-38.55,0,*6A
1510686309.24,1579,8.5,73556.3,-9.09,-38.17,-38.35,0,*6A
1510686310.48,1580,8.5,73558.5,-9.09,-38.55,-38.49,0,*61
1510686311.74,1581,8.5,73560.5,-9.07,-38.91,-38.85,0,*66
1510686313.0,1582,8.5,73558.0,-9.07,-38.85,-38.91,0,*65
1510686314.23,1583,8.5,73556.8,-9.09,-38.91,-38.85,0,*6A
1510686315.46,1584,8.5,73558.8,-9.07,-38.85,-38.73,0,*6F
1510686316.71,1585,8.5,73556.0,-9.07,-38.91,-38.85,0,*62
1510686317.99,1586,8.5,73556.5,-9.07,-38.67,-38.67,0,*64
1510686319.24,1587,8.5,73558.8,-9.07,-38.73,-38.67,0,*60
1510686320.5,1588,8.5,73556.0,-9.05,-38.91,-38.91,0,*68
1510686321.73,1589,8.5,73556.0,-9.05,-39.03,-39.09,0,*63
1510686322.99,1590,8.5,73558.5,-9.05,-39.03,-39.03,0,*61
1510686324.24,1591,8.5,73562.0,-9.03,-39.03,-39.09,0,*6C
1510686325.48,1592,8.5,73560.3,-9.05,-39.03,-39.09,0,*69
1510686326.73,1593,8.5,73556.8,-9.05,-39.23,-39.29,0,*68
1510686327.95,1594,8.5,73560.8,-9.05,-39.09,-39.09,0,*65
1510686329.18,1595,8.5,73562.0,-9.05,-39.03,-39.09,0,*6E
1510686330.46,1596,8.5,73560.8,-9.03,-39.23,-39.29,0,*6B
1510686331.71,1597,8.5,73560.8,-9.05,-39.29,-39.41,0,*68
1510686332.92,1598,8.5,73560.5,-9.05,-39.47,-39.47,0,*69
1510686334.17,1599,8.5,73562.3,-9.05,-39.29,-39.41,0,*66
1510686335.4,1600,8.5,73564.0,-9.05,-39.59,-39.47,0,*64
1510686336.61,1601,8.5,73566.5,-9.05,-39.47,-39.47,0,*6A
1510686337.86,1602,8.5,73566.3,-9.05,-39.29,-39.41,0,*67
1510686339.06,1603,8.5,73564.3,-9.05,-39.47,-39.47,0,*68
1510686340.32,1604,8.5,73564.8,-9.03,-39.65,-39.59,0,*66
1510686341.56,1605,8.5,73566.5,-9.05,-39.65,-39.59,0,*61
1510686342.8,1606,8.56,73568.8,-9.07,-39.65,-39.65,0,*6F
1510686344.05,1607,8.5,73568.5,-9.07,-39.53,-39.65,0,*6B
1510686345.28,1608,8.5,73564.0,-9.07,-39.65,-39.65,0,*61
1510686346.52,1609,8.5,73570.0,-9.07,-39.65,-39.65,0,*60
1510686347.78,1610,8.5,73566.8,-9.07,-39.85,-39.71,0,*63
1510686349.01,1611,8.5,73566.5,-9.07,-39.65,-39.65,0,*69
1510686350.27,1612,8.5,73564.3,-9.07,-39.71,-39.65,0,*6F
1510686351.56,1613,8.5,73564.5,-9.07,-39.71,-39.71,0,*6B
1510686352.79,1614,8.5,73566.8,-9.07,-39.85,-39.85,0,*6C
1510686354.03,1615,8.5,73566.8,-9.09,-39.71,-39.65,0,*66
1510686355.3,1616,8.5,73564.3,-9.09,-39.71,-39.71,0,*60
1510686356.54,1617,8.5,73562.3,-9.09,-39.85,-39.71,0,*6A
1510686357.78,1618,8.5,73562.3,-9.09,-39.85,-39.71,0,*65
1510686359.03,1619,8.5,73566.8,-9.09,-39.71,-39.65,0,*6A
1510686360.28,1620,8.5,73566.0,-9.07,-39.53,-39.65,0,*6E
1510686361.49,1621,8.5,73564.8,-9.09,-39.35,-39.47,0,*61
1510686362.72,1622,8.5,73570.0,-9.09,-39.47,-39.53,0,*62
1510686363.96,1623,8.5,73566.3,-9.07,-39.65,-39.65,0,*68
1510686365.19,1624,8.5,73566.5,-9.09,-39.53,-39.65,0,*64
1510686366.43,1625,8.5,73564.5,-9.09,-39.15,-39.35,0,*62
1510686367.67,1626,8.5,73566.5,-9.07,-39.29,-39.35,0,*60
1510686368.89,1627,8.5,73564.0,-9.07,-39.35,-39.47,0,*69
1510686370.12,1628,8.56,73568.5,-9.09,-39.29,-39.35,0,*60
1510686371.35,1629,8.5,73566.5,-9.09,-39.47,-39.53,0,*69
1510686372.62,1630,8.5,73568.3,-9.07,-39.71,-39.65,0,*6F
1510686373.88,1631,8.5,73564.0,-9.09,-39.71,-39.71,0,*65
1510686375.13,1632,8.5,73566.8,-9.09,-39.71,-39.65,0,*63
1510686376.37,1633,8.5,73564.3,-9.09,-39.71,-39.65,0,*62
1510686377.61,1634,8.5,73568.5,-9.07,-39.47,-39.65,0,*6E
1510686378.84,1635,8.5,73566.3,-9.09,-39.65,-39.53,0,*64
1510686380.05,1636,8.5,73566.0,-9.09,-39.47,-39.47,0,*62
1510686381.26,1637,8.5,73566.5,-9.09,-39.47,-39.47,0,*63
1510686382.55,1638,8.5,73570.0,-9.11,-39.59,-39.59,0,*65
1510686383.83,1639,8.5,73568.0,-9.11,-39.53,-39.53,0,*64
1510686385.08,1640,8.5,73570.0,-9.09,-39.53,-39.53,0,*63
1510686386.38,1641,8.5,73570.5,-9.11,-39.71,-39.59,0,*61
1510686387.61,1642,8.5,73566.5,-9.09,-39.53,-39.65,0,*64
1510686388.83,1643,8.5,73566.8,-9.09,-39.65,-39.65,0,*60
1510686390.07,1644,8.5,73566.8,-9.09,-39.47,-39.53,0,*62
1510686391.32,1645,8.5,73568.5,-9.11,-39.35,-39.41,0,*6C
1510686392.52,1646,8.5,73570.3,-9.09,-39.35,-39.47,0,*60
1510686393.75,1647,8.5,73570.0,-9.09,-39.29,-39.35,0,*69
1510686395.01,1648,8.5,73568.5,-9.09,-39.29,-39.29,0,*6B
1510686396.22,1649,8.5,73566.8,-9.09,-39.47,-39.35,0,*6F
1510686397.49,1650,8.5,73562.0,-9.07,-39.53,-39.53,0,*6C
1510686398.74,1651,8.5,73564.5,-9.07,-39.53,-39.65,0,*68
1510686400.03,1652,8.5,73564.8,-9.11,-39.53,-39.59,0,*63
1510686401.26,1653,8.5,73564.3,-9.09,-39.35,-39.53,0,*61
1510686402.53,1654,8.5,73560.5,-9.07,-39.53,-39.53,0,*68
1510686403.77,1655,8.5,73564.5,-9.09,-39.71,-39.65,0,*62
1510686405.04,1656,8.5,73564.3,-9.09,-39.71,-39.71,0,*64
1510686406.26,1657,8.5,73560.5,-9.09,-39.65,-39.65,0,*65
1510686407.5,1658,8.5,73560.3,-9.09,-39.53,-39.65,0,*6F
1510686408.73,1659,8.5,73560.5,-9.09,-39.47,-39.53,0,*6E
1510686409.94,1660,8.5,73556.0,-9.09,-39.47,-39.47,0,*61
1510686411.19,1661,8.5,73558.5,-9.09,-39.53,-39.53,0,*60
1510686412.46,1662,8.5,73558.5,-9.11,-39.91,-39.71,0,*64
1510686413.75,1663,8.5,73556.0,-9.11,-39.71,-39.71,0,*6B
1510686415.02,1664,8.5,73556.5,-9.13,-39.79,-39.79,0,*6E
1510686416.31,1665,8.5,73556.3,-9.11,-39.79,-39.79,0,*6D
1510686417.55,1666,8.5,73556.0,-9.11,-39.91,-39.91,0,*6E
1510686418.78,1667,8.5,73558.8,-9.13,-39.97,-40.15,0,*69
1510686420.05,1668,8.5,73556.3,-9.13,-40.09,-40.09,0,*62
1510686421.29,1669,8.5,73558.8,-9.13,-39.79,-39.91,0,*65
1510686422.56,1670,8.5,73558.8,-9.13,-39.79,-39.71,0,*63
1510686423.83,1671,8.5,73560.0,-9.13,-39.71,-39.71,0,*6A
1510686425.12,1672,8.5,73562.8,-9.11,-39.71,-39.79,0,*63
1510686426.38,1673,8.5,73566.0,-9.13,-39.53,-39.59,0,*62
1510686427.64,1674,8.5,73566.0,-9.13,-39.59,-39.59,0,*6F
1510686428.91,1675,8.5,73566.5,-9.13,-39.59,-39.59,0,*6E
1510686430.21,1676,8.5,73566.5,-9.11,-39.79,-39.79,0,*6F
1510686431.48,1677,8.5,73566.8,-9.13,-39.59,-39.79,0,*6E
1510686432.76,1678,8.5,73564.3,-9.11,-39.41,-39.53,0,*62
1510686433.99,1679,8.5,73566.5,-9.13,-39.35,-39.41,0,*61
1510686435.24,1680,8.5,73566.3,-9.11,-39.23,-39.35,0,*61
1510686436.49,1681,8.5,73566.3,-9.13,-39.03,-39.03,0,*65
1510686437.78,1682,8.5,73570.3,-9.11,-39.15,-39.23,0,*61
1510686439.04,1683,8.5,73566.5,-9.13,-39.03,-39.15,0,*60
1510686440.32,1684,8.5,73564.5,-9.11,-39.23,-39.23,0,*62
1510686441.6,1685,8.5,73564.0,-9.11,-39.53,-39.53,0,*63
1510686442.85,1686,8.5,73564.8,-9.13,-39.53,-39.53,0,*62
1510686444.14,1687,8.5,73568.3,-9.11,-39.71,-39.71,0,*61
1510686445.43,1688,8.5,73566.5,-9.11,-39.59,-39.71,0,*64
1510686446.67,1689,8.5,73566.0,-9.13,-39.91,-39.79,0,*6B
1510686447.89,1690,8.5,73566.0,-9.13,-39.91,-39.91,0,*65
1510686449.18,1691,8.5,73566.5,-9.11,-39.79,-39.71,0,*6E
1510686450.45,1692,8.5,73570.0,-9.13,-39.71,-39.59,0,*6D
1510686451.74,1693,8.5,73568.0,-9.11,-39.59,-39.71,0,*6E
1510686453.04,1694,8.5,73568.5,-9.11,-39.59,-39.59,0,*63
1510686454.31,1695,8.5,73566.5,-9.13,-39.59,-39.59,0,*60
1510686455.56,1696,8.5,73568.3,-9.13,-39.41,-39.41,0,*63
1510686456.76,1697,8.5,73570.0,-9.13,-39.35,-39.35,0,*62
1510686458.02,1698,8.5,73568.8,-9.11,-39.23,-39.35,0,*68
1510686459.28,1699,8.5,73568.5,-9.13,-39.15,-39.15,0,*6C
1510686460.57,1700,8.5,73570.3,-9.11,-39.15,-39.23,0,*6A
1510686461.8,1701,8.5,73568.8,-9.11,-38.61,-38.73,0,*6D
1510686463.04,1702,8.5,73568.0,-9.11,-38.43,-38.55,0,*6A
1510686464.27,1703,8.5,73568.5,-9.09,-38.91,-38.97,0,*63
1510686465.48,1704,8.5,73570.0,-9.09,-38.97,-38.97,0,*62
1510686466.71,1705,8.5,73570.0,-9.09,-38.67,-38.55,0,*62
1510686467.94,1706,8.5,73568.8,-9.07,-38.97,-39.09,0,*68
1510686469.17,1707,8.5,73566.5,-9.09,-39.29,-39.35,0,*6C
1510686470.44,1708,8.5,73566.5,-9.07,-39.29,-39.29,0,*60
1510686471.66,1709,8.5,73564.8,-9.07,-39.35,-39.35,0,*61
1510686472.92,1710,8.5,73564.0,-9.07,-39.09,-39.15,0,*64
1510686474.14,1711,8.5,73564.5,-9.07,-38.97,-39.09,0,*6E
1510686475.41,1712,8.5,73566.5,-9.09,-39.15,-39.15,0,*65
1510686476.67,1713,8.5,73566.8,-9.07,-39.09,-39.29,0,*68
1510686477.87,1714,8.5,73564.8,-9.09,-38.97,-38.97,0,*63
1510686479.1,1715,8.5,73566.0,-9.07,-38.97,-39.09,0,*6A
1510686480.31,1716,8.5,73560.8,-9.09,-38.85,-38.85,0,*61
1510686481.57,1717,8.5,73564.3,-9.07,-39.09,-39.15,0,*63
1510686482.8,1718,8.5,73560.3,-9.07,-39.09,-39.35,0,*6E
1510686484.02,1719,8.5,73562.8,-9.07,-38.97,-39.09,0,*66
1510686485.28,1720,8.5,73558.8,-9.07,-39.09,-39.15,0,*67
1510686486.56,1721,8.5,73556.8,-9.07,-39.29,-39.29,0,*6B
1510686487.78,1722,8.5,73556.5,-9.07,-39.35,-39.47,0,*6D
1510686489.06,1723,8.5,73556.3,-9.07,-39.15,-39.15,0,*69
1510686490.28,1724,8.5,73558.0,-9.05,-39.29,-39.47,0,*64
1510686491.55,1725,8.5,73556.5,-9.05,-39.59,-39.59,0,*6D
1510686492.82,1726,8.5,73558.0,-9.05,-39.79,-39.79,0,*6E
1510686494.06,1727,8.5,73562.8,-9.05,-39.47,-39.59,0,*60
1510686495.33,1728,8.5,73560.5,-9.07,-39.53,-39.53,0,*62
1510686496.6,1729,8.5,73562.5,-9.05,-39.59,-39.59,0,*61
1510686497.85,1730,8.5,73560.5,-9.07,-39.53,-39.65,0,*6E
1510686499.08,1731,8.5,73560.3,-9.07,-39.85,-39.91,0,*6F
1510686500.31,1732,8.5,73562.0,-9.07,-39.85,-39.85,0,*69
1510686501.55,1733,8.5,73564.3,-9.07,-39.85,-39.91,0,*6D
1510686502.78,1734,8.5,73560.3,-9.07,-39.85,-39.85,0,*6F
1510686504.02,1735,8.5,73562.5,-9.09,-39.71,-39.91,0,*6E
1510686505.27,1736,8.5,73566.0,-9.07,-39.53,-39.65,0,*68
1510686506.49,1737,8.5,73562.3,-9.09,-39.65,-39.65,0,*62
1510686507.73,1738,8.5,73560.3,-9.07,-39.65,-39.65,0,*63
1510686508.95,1739,8.5,73560.8,-9.09,-39.65,-39.65,0,*6C
1510686510.18,1740,8.5,73562.3,-9.09,-39.65,-39.53,0,*67
1510686511.45,1741,8.5,73562.3,-9.07,-39.53,-39.53,0,*6D
1510686512.69,1742,8.5,73564.0,-9.09,-39.71,-39.85,0,*6B
1510686513.91,1743,8.5,73562.5,-9.09,-39.65,-39.65,0,*61
1510686515.13,1744,8.5,73560.0,-9.09,-39.65,-39.65,0,*66
1510686516.37,1745,8.5,73566.0,-9.09,-39.85,-39.71,0,*6C
1510686517.65,1746,8.5,73560.8,-9.11,-39.97,-39.97,0,*6D
1510686518.89,1747,8.5,73566.5,-9.09,-39.85,-39.71,0,*6E
1510686520.14,1748,8.5,73564.8,-9.09,-39.71,-39.65,0,*6F
1510686521.43,1749,8.5,73566.5,-9.11,-39.79,-39.79,0,*62
1510686522.73,1750,8.5,73570.8,-9.11,-39.79,-39.71,0,*62
1510686523.97,1751,8.5,73568.5,-9.09,-39.71,-39.65,0,*67